When you browse on this site, cookies collect data to enhance your experience and personalize the content and advertising you see.
Visit our Privacy Policy to learn more. By continuing to use the site, you agree to this use of cookies and data.
  • In Austria
  • List of Countries
  • For 7 days
  • Water Temperature
  • Weather Map
  • News
  • Weather Widgets
  • user-avatar
    Login

    Hourly Weather Hlukhivets'

    Today, 17 September, Tuesday

    Time Temperature Precipitation Wind Pressure Humidity
    00:00 +12°C° 0 mm 2 mps 731 mmHg 87%
    01:00 +11°C° 0 mm 3 mps 732 mmHg 87%
    02:00 +11°C° 0 mm 3 mps 732 mmHg 86%
    03:00 +11°C° 0.2 mm 3 mps 731 mmHg 86%
    04:00 +10°C° 0.2 mm 3 mps 731 mmHg 86%
    05:00 +10°C° 0.2 mm 3 mps 731 mmHg 87%
    06:00 +10°C° 0 mm 3 mps 731 mmHg 85%
    07:00 +10°C° 0 mm 4 mps 731 mmHg 84%
    08:00 +10°C° 0 mm 4 mps 731 mmHg 83%
    09:00 +12°C° 0 mm 4 mps 731 mmHg 75%
    10:00 +13°C° 0 mm 4 mps 731 mmHg 67%
    11:00 +15°C° 0 mm 5 mps 731 mmHg 60%
    12:00 +15°C° 0 mm 5 mps 731 mmHg 57%
    13:00 +16°C° 0 mm 5 mps 730 mmHg 55%
    14:00 +16°C° 0 mm 6 mps 730 mmHg 53%
    15:00 +16°C° 0 mm 5 mps 729 mmHg 54%
    16:00 +16°C° 0 mm 5 mps 729 mmHg 56%
    17:00 +15°C° 0 mm 4 mps 728 mmHg 58%
    18:00 +14°C° 0 mm 3 mps 728 mmHg 63%
    19:00 +13°C° 0 mm 3 mps 728 mmHg 68%
    20:00 +13°C° 0 mm 2 mps 728 mmHg 73%
    21:00 +12°C° 0 mm 3 mps 728 mmHg 76%
    22:00 +11°C° 0 mm 3 mps 727 mmHg 78%
    23:00 +11°C° 0 mm 4 mps 727 mmHg 81%

    Tomorrow, 18 September, Wednesday

    Time Temperature Precipitation Wind Pressure Humidity
    00:00 +9°C° 0.1 mm 5 mps 727 mmHg 81%
    01:00 +8°C° 0.1 mm 6 mps 728 mmHg 82%
    02:00 +6°C° 0.1 mm 8 mps 728 mmHg 82%
    03:00 +5°C° 0 mm 7 mps 728 mmHg 82%
    04:00 +5°C° 0 mm 7 mps 729 mmHg 82%
    05:00 +4°C° 0 mm 7 mps 729 mmHg 82%
    06:00 +4°C° 0 mm 8 mps 729 mmHg 78%
    07:00 +5°C° 0 mm 9 mps 730 mmHg 74%
    08:00 +5°C° 0 mm 10 mps 731 mmHg 71%
    09:00 +5°C° 0 mm 10 mps 731 mmHg 70%
    10:00 +6°C° 0 mm 10 mps 732 mmHg 68%
    11:00 +6°C° 0 mm 9 mps 733 mmHg 67%
    12:00 +7°C° 0 mm 10 mps 733 mmHg 64%
    13:00 +8°C° 0 mm 10 mps 733 mmHg 60%
    14:00 +9°C° 0 mm 10 mps 734 mmHg 56%
    15:00 +9°C° 0 mm 10 mps 734 mmHg 57%
    16:00 +10°C° 0 mm 9 mps 734 mmHg 58%
    17:00 +9°C° 0 mm 8 mps 735 mmHg 59%
    18:00 +8°C° 0 mm 7 mps 735 mmHg 63%
    19:00 +7°C° 0 mm 6 mps 735 mmHg 67%
    20:00 +6°C° 0 mm 5 mps 736 mmHg 71%
    21:00 +6°C° 0 mm 5 mps 736 mmHg 74%
    22:00 +6°C° 0 mm 5 mps 736 mmHg 76%
    23:00 +5°C° 0 mm 5 mps 736 mmHg 78%

    Day after tomorrow, 19 September, Thursday

    Time Temperature Precipitation Wind Pressure Humidity
    00:00 +5°C° 0 mm 5 mps 736 mmHg 79%
    01:00 +5°C° 0 mm 4 mps 737 mmHg 81%
    02:00 +5°C° 0 mm 4 mps 737 mmHg 82%
    03:00 +4°C° 0 mm 4 mps 737 mmHg 83%
    04:00 +4°C° 0 mm 4 mps 736 mmHg 85%
    05:00 +3°C° 0 mm 4 mps 736 mmHg 87%
    06:00 +5°C° 0 mm 4 mps 737 mmHg 81%
    07:00 +6°C° 0 mm 5 mps 737 mmHg 74%
    08:00 +7°C° 0 mm 5 mps 737 mmHg 68%
    09:00 +8°C° 0 mm 5 mps 737 mmHg 62%
    10:00 +10°C° 0 mm 6 mps 738 mmHg 56%
    11:00 +11°C° 0 mm 6 mps 738 mmHg 50%
    12:00 +12°C° 0 mm 5 mps 738 mmHg 48%
    13:00 +13°C° 0 mm 5 mps 737 mmHg 45%
    14:00 +13°C° 0 mm 5 mps 737 mmHg 43%
    15:00 +13°C° 0 mm 5 mps 737 mmHg 46%
    16:00 +13°C° 0 mm 4 mps 737 mmHg 49%
    17:00 +12°C° 0 mm 4 mps 737 mmHg 52%
    18:00 +10°C° 0.1 mm 4 mps 737 mmHg 63%
    19:00 +8°C° 0.1 mm 3 mps 737 mmHg 74%
    20:00 +5°C° 0.1 mm 3 mps 737 mmHg 85%
    21:00 +7°C° 0.1 mm 3 mps 737 mmHg 86%
    22:00 +7°C° 0.1 mm 3 mps 738 mmHg 87%
    23:00 +7°C° 0.1 mm 3 mps 738 mmHg 87%

    20 September, Friday

    Time Temperature Precipitation Wind Pressure Humidity
    00:00 +5°C° 0.2 mm 3 mps 738 mmHg 89%
    01:00 +5°C° 0.2 mm 4 mps 738 mmHg 91%
    02:00 +4°C° 0.2 mm 4 mps 738 mmHg 94%
    03:00 +4°C° 0 mm 4 mps 738 mmHg 94%
    04:00 +3°C° 0 mm 4 mps 738 mmHg 95%
    05:00 +3°C° 0 mm 4 mps 738 mmHg 96%
    06:00 +3°C° 0 mm 4 mps 738 mmHg 94%
    07:00 +3°C° 0 mm 5 mps 738 mmHg 92%
    08:00 +3°C° 0 mm 5 mps 738 mmHg 91%
    09:00 +6°C° 0.2 mm 5 mps 739 mmHg 83%
    10:00 +7°C° 0.2 mm 6 mps 739 mmHg 76%
    11:00 +8°C° 0.2 mm 6 mps 739 mmHg 69%
    12:00 +9°C° 0.4 mm 6 mps 739 mmHg 65%
    13:00 +9°C° 0.4 mm 6 mps 739 mmHg 61%
    14:00 +10°C° 0.4 mm 6 mps 739 mmHg 57%
    15:00 +10°C° 0.1 mm 6 mps 739 mmHg 57%
    16:00 +10°C° 0.1 mm 5 mps 739 mmHg 56%
    17:00 +10°C° 0.1 mm 5 mps 739 mmHg 56%
    18:00 +8°C° 0 mm 4 mps 739 mmHg 63%
    19:00 +6°C° 0 mm 4 mps 740 mmHg 69%
    20:00 +5°C° 0 mm 3 mps 740 mmHg 76%
    21:00 +4°C° 0 mm 3 mps 741 mmHg 78%
    22:00 +3°C° 0 mm 3 mps 741 mmHg 81%
    23:00 +3°C° 0 mm 3 mps 741 mmHg 84%

    21 September, Saturday

    Time Temperature Precipitation Wind Pressure Humidity
    00:00 +3°C° 0 mm 2 mps 742 mmHg 86%
    01:00 +3°C° 0 mm 2 mps 742 mmHg 88%
    02:00 +2°C° 0 mm 2 mps 742 mmHg 90%
    03:00 +2°C° 0 mm 2 mps 742 mmHg 90%
    04:00 +2°C° 0 mm 2 mps 742 mmHg 91%
    05:00 +2°C° 0 mm 2 mps 742 mmHg 92%
    06:00 +3°C° 0 mm 2 mps 742 mmHg 87%
    07:00 +4°C° 0 mm 2 mps 742 mmHg 82%
    08:00 +5°C° 0 mm 2 mps 742 mmHg 78%
    09:00 +7°C° 0 mm 2 mps 743 mmHg 68%
    10:00 +9°C° 0 mm 2 mps 743 mmHg 59%
    11:00 +11°C° 0 mm 3 mps 743 mmHg 50%
    12:00 +12°C° 0 mm 3 mps 743 mmHg 47%
    13:00 +13°C° 0 mm 3 mps 742 mmHg 45%
    14:00 +14°C° 0 mm 3 mps 742 mmHg 42%
    15:00 +13°C° 0 mm 3 mps 742 mmHg 44%
    16:00 +13°C° 0 mm 3 mps 741 mmHg 46%
    17:00 +13°C° 0 mm 3 mps 741 mmHg 48%
    18:00 +11°C° 0 mm 3 mps 741 mmHg 54%
    19:00 +9°C° 0 mm 2 mps 741 mmHg 60%
    20:00 +7°C° 0 mm 2 mps 741 mmHg 65%
    21:00 +8°C° 0 mm 2 mps 741 mmHg 64%
    22:00 +8°C° 0 mm 2 mps 741 mmHg 63%
    23:00 +8°C° 0 mm 2 mps 742 mmHg 62%

    22 September, Sunday

    Time Temperature Precipitation Wind Pressure Humidity
    00:00 +8°C° 0 mm 2 mps 741 mmHg 63%
    01:00 +7°C° 0 mm 2 mps 741 mmHg 65%
    02:00 +7°C° 0 mm 2 mps 741 mmHg 67%
    03:00 +6°C° 0 mm 2 mps 741 mmHg 67%
    04:00 +6°C° 0 mm 2 mps 741 mmHg 68%
    05:00 +6°C° 0 mm 2 mps 741 mmHg 69%
    06:00 +7°C° 0 mm 2 mps 741 mmHg 66%
    07:00 +8°C° 0 mm 2 mps 742 mmHg 63%
    08:00 +9°C° 0 mm 3 mps 742 mmHg 60%
    09:00 +11°C° 0 mm 3 mps 742 mmHg 58%
    10:00 +13°C° 0 mm 3 mps 742 mmHg 55%
    11:00 +16°C° 0 mm 3 mps 742 mmHg 52%
    12:00 +16°C° 0 mm 3 mps 742 mmHg 52%
    13:00 +17°C° 0 mm 3 mps 742 mmHg 53%
    14:00 +18°C° 0 mm 3 mps 741 mmHg 53%
    15:00 +17°C° 0 mm 3 mps 741 mmHg 56%
    16:00 +17°C° 0 mm 2 mps 741 mmHg 59%
    17:00 +17°C° 0 mm 2 mps 741 mmHg 62%
    18:00 +14°C° 0 mm 2 mps 741 mmHg 70%
    19:00 +12°C° 0 mm 1 mps 742 mmHg 78%
    20:00 +10°C° 0 mm 1 mps 742 mmHg 86%
    21:00 +10°C° 0 mm 1 mps 742 mmHg 87%
    22:00 +9°C° 0 mm 2 mps 742 mmHg 88%
    23:00 +8°C° 0 mm 2 mps 742 mmHg 89%
    Show more